Aérodrome :
LOGIN :

S'inscrire | Disclaimer

   EN    FR    IT 

 










Légende :    VFR   VFR Marginal   IFR   IFR Intensif   IFR Très Intensif
Visi : 
Plafond : 
>= 8 km
>= 3000ft
5 à 8 km
1000 à 3000 ft
1500m à 5 km
500 à 1000 ft
800 à 1500m
200 à 500 ft
< 800m
< 200 ft
Symboles :   Orages  Brouillard  Fortes neiges  Fortes précipitations  Vent > 20 kt
SIGMETs :   Divers  Orages  Givrage  Turbulence  Onde Orograph.  Cendres Volcan.







- Altitude de l'aérodrome : 1339 ft


ETHN - Niederstetten

DERNIER METAR :
  • 142220Z 15004KT 9999 SCT006 OVC013 02/01 Q0993 GRN

METARs EXPIRÉS :
  • 142120Z 22012KT 9999 -RA BKN006 OVC022 02/01 Q0994 YLO
  • 142020Z 22014KT 9999 FEW010 SCT035 BKN050 03/00 Q0994 BLU

TAF AMD TAF ETHN
Valide du 14 à 15h jusqu'au 15 à 00h UTC


141555Z 1415/1424 25020G30KT 9999 NSW BKN030
BECMG 1415/1417 23010G20KT 9999 NSW BKN030
TEMPO 1416/1418 25015G25KT 5000 SHRA BKN015
TEMPO 1418/1424 23010KT 4000 -SNRA BKN006 CANCEL 1600
Pas de NOTAMs connus pour ce terrain.



MET'MAP, la Météo Aéronautique d'un coup d'oeil ! - Copyright ORBIFLY Décembre 2007 - Disclaimer

ORBIFLY MET'MAP TEAM :

Programmation & Développement : Alexandra Zaïnal
Conception & Développement : Baudouin d'Aumeries
Co-Programmation & Développement : Marc-Olivier Méhu
Soutien technique & logistique : Manuel Goepfert

Contact : metmap@orbifly.com




SOURCES & CREDITS :

   NOAA